Back to catalog

HULIANWANG DIGUI-95

AliveCommunicationsLEO
NORAD 66003·PAYLOAD·🇨🇳 China

Launched Oct 16, 2025 from Wenchang Space Launch Site

Loading…

Next Passes (next 24 hours)

TLE

FreshSource: Space-Track

Epoch: Sep 14, 2026, 13:40 UTC

1 66003U 25231J   26257.57011362 -.00000097  00000-0  57337-4 0  9991
2 66003  50.0019 214.8159 0000310  33.6585 326.4307 13.29327300 44784

Track HULIANWANG DIGUI-95 in real time with AllMySat

Download on the App Store